Terminal Aerodrome Forecast
Issued by NWS Topeka, KS

Home | Current Version | Previous Version | Graphics & Text | Print | Product List | Glossary On
Versions: 1 2 3 4 5 6 7 8 9 10 11 12 13 14 15 16
908
FTUS43 KTOP 030608 AAA
TAFTOP
TAF AMD
KTOP 030608Z 0306/0406 28005KT 5SM BR FEW050 SCT150
      TEMPO 0306/0310 1/2SM FG=

USA.gov is the U.S. government's official web portal to all federal, state and local government web resources and services.